Year,Month,Day,Hour,Minute,Value (Times are PST for temperature in C)
2009,07,05,00,00,16.30
2009,07,05,00,01,16.30
2009,07,05,00,02,16.30
2009,07,05,00,03,16.40
2009,07,05,00,04,16.40
2009,07,05,00,05,16.40
2009,07,05,00,06,16.40
2009,07,05,00,07,16.40
2009,07,05,00,08,16.30
2009,07,05,00,09,16.30
2009,07,05,00,10,16.30
2009,07,05,00,11,16.30
2009,07,05,00,12,16.20
2009,07,05,00,13,16.20
2009,07,05,00,14,16.20
2009,07,05,00,15,16.10
2009,07,05,00,16,16.10
2009,07,05,00,17,16.10
2009,07,05,00,18,16.00
2009,07,05,00,19,15.90
2009,07,05,00,20,15.90
2009,07,05,00,21,15.90
2009,07,05,00,22,15.80
2009,07,05,00,23,15.80
2009,07,05,00,24,15.80
2009,07,05,00,25,15.80
2009,07,05,00,26,15.80
2009,07,05,00,27,15.80
2009,07,05,00,28,15.90
2009,07,05,00,29,15.90
2009,07,05,00,30,15.90
2009,07,05,00,31,16.00
2009,07,05,00,32,16.10
2009,07,05,00,33,16.10
2009,07,05,00,34,16.10
2009,07,05,00,35,16.10
2009,07,05,00,36,16.10
2009,07,05,00,37,16.10
2009,07,05,00,38,16.10
2009,07,05,00,39,16.20
2009,07,05,00,40,16.20
2009,07,05,00,41,16.20
2009,07,05,00,42,16.30
2009,07,05,00,43,16.30
2009,07,05,00,44,16.40
2009,07,05,00,45,16.40
2009,07,05,00,46,16.40
2009,07,05,00,47,16.40
2009,07,05,00,48,16.40
2009,07,05,00,49,16.40
2009,07,05,00,50,16.50
2009,07,05,00,51,16.60
2009,07,05,00,52,16.60
2009,07,05,00,53,16.60
2009,07,05,00,54,16.60
2009,07,05,00,55,16.60
2009,07,05,00,56,16.60
2009,07,05,00,57,16.50
2009,07,05,00,58,16.40
2009,07,05,00,59,16.40
2009,07,05,01,00,16.40
2009,07,05,01,01,16.40
2009,07,05,01,02,16.40
2009,07,05,01,03,16.40
2009,07,05,01,04,16.40
2009,07,05,01,05,16.40
2009,07,05,01,06,16.40
2009,07,05,01,07,16.40
2009,07,05,01,08,16.40
2009,07,05,01,09,16.30
2009,07,05,01,10,16.30
2009,07,05,01,11,16.20
2009,07,05,01,12,16.20
2009,07,05,01,13,16.20
2009,07,05,01,14,16.20
2009,07,05,01,15,16.20
2009,07,05,01,16,16.20
2009,07,05,01,17,16.20
2009,07,05,01,18,16.20
2009,07,05,01,19,16.30
2009,07,05,01,20,16.30
2009,07,05,01,21,16.30
2009,07,05,01,22,16.40
2009,07,05,01,23,16.40
2009,07,05,01,24,16.40
2009,07,05,01,25,16.40
2009,07,05,01,26,16.50
2009,07,05,01,27,16.60
2009,07,05,01,28,16.60
2009,07,05,01,29,16.70
2009,07,05,01,30,16.70
2009,07,05,01,31,16.70
2009,07,05,01,32,16.70
2009,07,05,01,33,16.70
2009,07,05,01,34,16.70
2009,07,05,01,35,16.70
2009,07,05,01,36,16.50
2009,07,05,01,37,16.30
2009,07,05,01,38,16.00
2009,07,05,01,39,15.80
2009,07,05,01,40,15.50
2009,07,05,01,41,15.40
2009,07,05,01,42,15.20
2009,07,05,01,43,15.00
2009,07,05,01,44,15.00
2009,07,05,01,45,14.90
2009,07,05,01,46,14.80
2009,07,05,01,47,14.80
2009,07,05,01,48,14.80
2009,07,05,01,49,14.70
2009,07,05,01,50,14.70
2009,07,05,01,51,14.70
2009,07,05,01,52,14.60
2009,07,05,01,53,14.60
2009,07,05,01,54,14.60
2009,07,05,01,55,14.50
2009,07,05,01,56,14.50
2009,07,05,01,57,14.50
2009,07,05,01,58,14.40
2009,07,05,01,59,14.40
2009,07,05,02,00,14.40
2009,07,05,02,01,14.30
2009,07,05,02,02,14.30
2009,07,05,02,03,14.20
2009,07,05,02,04,14.20
2009,07,05,02,05,14.20
2009,07,05,02,06,14.10
2009,07,05,02,07,14.10
2009,07,05,02,08,14.00
2009,07,05,02,09,14.00
2009,07,05,02,10,13.90
2009,07,05,02,11,13.80
2009,07,05,02,12,13.70
2009,07,05,02,13,13.70
2009,07,05,02,14,13.60
2009,07,05,02,15,13.60
2009,07,05,02,16,13.50
2009,07,05,02,17,13.50
2009,07,05,02,18,13.40
2009,07,05,02,19,13.40
2009,07,05,02,20,13.40
2009,07,05,02,21,13.40
2009,07,05,02,22,13.40
2009,07,05,02,23,13.30
2009,07,05,02,24,13.30
2009,07,05,02,25,13.30
2009,07,05,02,26,13.40
2009,07,05,02,27,13.40
2009,07,05,02,28,13.50
2009,07,05,02,29,13.50
2009,07,05,02,30,13.60
2009,07,05,02,31,13.60
2009,07,05,02,32,13.60
2009,07,05,02,33,13.60
2009,07,05,02,34,13.60
2009,07,05,02,35,13.60
2009,07,05,02,36,13.60
2009,07,05,02,37,13.60
2009,07,05,02,38,13.60
2009,07,05,02,39,13.70
2009,07,05,02,40,13.70
2009,07,05,02,41,13.70
2009,07,05,02,42,13.70
2009,07,05,02,43,13.70
2009,07,05,02,44,13.70
2009,07,05,02,45,13.70
2009,07,05,02,46,13.70
2009,07,05,02,47,13.70
2009,07,05,02,48,13.70
2009,07,05,02,49,13.70
2009,07,05,02,50,13.70
2009,07,05,02,51,13.70
2009,07,05,02,52,13.80
2009,07,05,02,53,13.80
2009,07,05,02,54,13.80
2009,07,05,02,55,13.80
2009,07,05,02,56,13.80
2009,07,05,02,57,13.80
2009,07,05,02,58,13.80
2009,07,05,02,59,13.80
2009,07,05,03,00,13.80
2009,07,05,03,01,13.80
2009,07,05,03,02,13.80
2009,07,05,03,03,13.80
2009,07,05,03,04,13.80
2009,07,05,03,05,13.80
2009,07,05,03,06,13.90
2009,07,05,03,07,13.90
2009,07,05,03,08,13.90
2009,07,05,03,09,13.90
2009,07,05,03,10,13.90
2009,07,05,03,11,14.00
2009,07,05,03,12,14.00
2009,07,05,03,13,14.00
2009,07,05,03,14,14.00
2009,07,05,03,15,14.10
2009,07,05,03,16,14.10
2009,07,05,03,17,14.20
2009,07,05,03,18,14.20
2009,07,05,03,19,14.20
2009,07,05,03,20,14.20
2009,07,05,03,21,14.30
2009,07,05,03,22,14.30
2009,07,05,03,23,14.30
2009,07,05,03,24,14.40
2009,07,05,03,25,14.40
2009,07,05,03,26,14.40
2009,07,05,03,27,14.40
2009,07,05,03,28,14.50
2009,07,05,03,29,14.50
2009,07,05,03,30,14.50
2009,07,05,03,31,14.50
2009,07,05,03,32,14.50
2009,07,05,03,33,14.50
2009,07,05,03,34,14.50
2009,07,05,03,35,14.50
2009,07,05,03,36,14.50
2009,07,05,03,37,14.60
2009,07,05,03,38,14.60
2009,07,05,03,39,14.60
2009,07,05,03,40,14.60
2009,07,05,03,41,14.60
2009,07,05,03,42,14.60
2009,07,05,03,43,14.60
2009,07,05,03,44,14.60
2009,07,05,03,45,14.60
2009,07,05,03,46,14.60
2009,07,05,03,47,14.60
2009,07,05,03,48,14.60
2009,07,05,03,49,14.60
2009,07,05,03,50,14.70
2009,07,05,03,51,14.70
2009,07,05,03,52,14.70
2009,07,05,03,53,14.80
2009,07,05,03,54,14.80
2009,07,05,03,55,14.80
2009,07,05,03,56,14.80
2009,07,05,03,57,14.80
2009,07,05,03,58,14.80
2009,07,05,03,59,14.80
2009,07,05,04,00,14.80
2009,07,05,04,01,14.80
2009,07,05,04,02,14.90
2009,07,05,04,03,14.90
2009,07,05,04,04,14.90
2009,07,05,04,05,14.90
2009,07,05,04,06,14.90
2009,07,05,04,07,15.00
2009,07,05,04,08,15.00
2009,07,05,04,09,15.10
2009,07,05,04,10,15.10
2009,07,05,04,11,15.10
2009,07,05,04,12,15.10
2009,07,05,04,13,15.10
2009,07,05,04,14,15.10
2009,07,05,04,15,15.10
2009,07,05,04,16,15.10
2009,07,05,04,17,15.10
2009,07,05,04,18,15.10
2009,07,05,04,19,15.10
2009,07,05,04,20,15.00
2009,07,05,04,21,15.00
2009,07,05,04,22,15.00
2009,07,05,04,23,15.00
2009,07,05,04,24,15.00
2009,07,05,04,25,14.90
2009,07,05,04,26,14.90
2009,07,05,04,27,14.90
2009,07,05,04,28,14.90
2009,07,05,04,29,14.90
2009,07,05,04,30,14.90
2009,07,05,04,31,14.90
2009,07,05,04,32,14.90
2009,07,05,04,33,14.90
2009,07,05,04,34,14.90
2009,07,05,04,35,14.90
2009,07,05,04,36,14.90
2009,07,05,04,37,14.90
2009,07,05,04,38,14.90
2009,07,05,04,39,14.90
2009,07,05,04,40,14.90
2009,07,05,04,41,14.90
2009,07,05,04,42,14.90
2009,07,05,04,43,14.90
2009,07,05,04,44,14.90
2009,07,05,04,45,14.90
2009,07,05,04,46,14.80
2009,07,05,04,47,14.80
2009,07,05,04,48,14.80
2009,07,05,04,49,14.80
2009,07,05,04,50,14.80
2009,07,05,04,51,14.70
2009,07,05,04,52,14.70
2009,07,05,04,53,14.70
2009,07,05,04,54,14.70
2009,07,05,04,55,14.70
2009,07,05,04,56,14.70
2009,07,05,04,57,14.70
2009,07,05,04,58,14.70
2009,07,05,04,59,14.70
2009,07,05,05,00,14.80
2009,07,05,05,01,14.80
2009,07,05,05,02,14.80
2009,07,05,05,03,14.90
2009,07,05,05,04,15.00
2009,07,05,05,05,15.00
2009,07,05,05,06,15.10
2009,07,05,05,07,15.20
2009,07,05,05,08,15.30
2009,07,05,05,09,15.40
2009,07,05,05,10,15.40
2009,07,05,05,11,15.50
2009,07,05,05,12,15.60
2009,07,05,05,13,15.70
2009,07,05,05,14,15.80
2009,07,05,05,15,16.00
2009,07,05,05,16,16.10
2009,07,05,05,17,16.20
2009,07,05,05,18,16.30
2009,07,05,05,19,16.40
2009,07,05,05,20,16.40
2009,07,05,05,21,16.40
2009,07,05,05,22,16.40
2009,07,05,05,23,16.40
2009,07,05,05,24,16.40
2009,07,05,05,25,16.30
2009,07,05,05,26,16.20
2009,07,05,05,27,16.20
2009,07,05,05,28,16.10
2009,07,05,05,29,16.10
2009,07,05,05,30,15.90
2009,07,05,05,31,15.90
2009,07,05,05,32,15.80
2009,07,05,05,33,15.70
2009,07,05,05,34,15.60
2009,07,05,05,35,15.50
2009,07,05,05,36,15.50
2009,07,05,05,37,15.40
2009,07,05,05,38,15.30
2009,07,05,05,39,15.30
2009,07,05,05,40,15.30
2009,07,05,05,41,15.20
2009,07,05,05,42,15.20
2009,07,05,05,43,15.10
2009,07,05,05,44,15.10
2009,07,05,05,45,15.10
2009,07,05,05,46,15.10
2009,07,05,05,47,15.10
2009,07,05,05,48,15.10
2009,07,05,05,49,15.10
2009,07,05,05,50,15.10
2009,07,05,05,51,15.10
2009,07,05,05,52,15.00
2009,07,05,05,53,15.00
2009,07,05,05,54,14.90
2009,07,05,05,55,14.80
2009,07,05,05,56,14.80
2009,07,05,05,57,14.80
2009,07,05,05,58,14.80
2009,07,05,05,59,14.70
2009,07,05,06,00,14.70
2009,07,05,06,01,14.60
2009,07,05,06,02,14.60
2009,07,05,06,03,14.50
2009,07,05,06,04,14.40
2009,07,05,06,05,14.40
2009,07,05,06,06,14.30
2009,07,05,06,07,14.20
2009,07,05,06,08,14.20
2009,07,05,06,09,14.10
2009,07,05,06,10,14.00
2009,07,05,06,11,14.00
2009,07,05,06,12,13.90
2009,07,05,06,13,13.90
2009,07,05,06,14,13.80
2009,07,05,06,15,13.70
2009,07,05,06,16,13.70
2009,07,05,06,17,13.70
2009,07,05,06,18,13.70
2009,07,05,06,19,13.70
2009,07,05,06,20,13.70
2009,07,05,06,21,13.60
2009,07,05,06,22,13.60
2009,07,05,06,23,13.70
2009,07,05,06,24,13.70
2009,07,05,06,25,13.70
2009,07,05,06,26,13.70
2009,07,05,06,27,13.70
2009,07,05,06,28,13.70
2009,07,05,06,29,13.70
2009,07,05,06,30,13.70
2009,07,05,06,31,13.70
2009,07,05,06,32,13.70
2009,07,05,06,33,13.70
2009,07,05,06,34,13.70
2009,07,05,06,35,13.70
2009,07,05,06,36,13.70
2009,07,05,06,37,13.80
2009,07,05,06,38,13.80
2009,07,05,06,39,13.80
2009,07,05,06,40,13.80
2009,07,05,06,41,13.80
2009,07,05,06,42,13.90
2009,07,05,06,43,13.90
2009,07,05,06,44,14.00
2009,07,05,06,45,14.00
2009,07,05,06,46,14.00
2009,07,05,06,47,14.10
2009,07,05,06,48,14.10
2009,07,05,06,49,14.20
2009,07,05,06,50,14.20
2009,07,05,06,51,14.20
2009,07,05,06,52,14.30
2009,07,05,06,53,14.30
2009,07,05,06,54,14.40
2009,07,05,06,55,14.40
2009,07,05,06,56,14.50
2009,07,05,06,57,14.50
2009,07,05,06,58,14.50
2009,07,05,06,59,14.60
2009,07,05,07,00,14.60
2009,07,05,07,01,14.70
2009,07,05,07,02,14.70
2009,07,05,07,03,14.80
2009,07,05,07,04,14.80
2009,07,05,07,05,14.80
2009,07,05,07,06,14.90
2009,07,05,07,07,14.90
2009,07,05,07,08,15.00
2009,07,05,07,09,15.00
2009,07,05,07,10,15.10
2009,07,05,07,11,15.10
2009,07,05,07,12,15.20
2009,07,05,07,13,15.20
2009,07,05,07,14,15.30
2009,07,05,07,15,15.30
2009,07,05,07,16,15.40
2009,07,05,07,17,15.40
2009,07,05,07,18,15.50
2009,07,05,07,19,15.50
2009,07,05,07,20,15.60
2009,07,05,07,21,15.70
2009,07,05,07,22,15.80
2009,07,05,07,23,15.80
2009,07,05,07,24,15.90
2009,07,05,07,25,16.00
2009,07,05,07,26,16.10
2009,07,05,07,27,16.10
2009,07,05,07,28,16.20
2009,07,05,07,29,16.30
2009,07,05,07,30,16.30
2009,07,05,07,31,16.40
2009,07,05,07,32,16.40
2009,07,05,07,33,16.40
2009,07,05,07,34,16.50
2009,07,05,07,35,16.60
2009,07,05,07,36,16.60
2009,07,05,07,37,16.70
2009,07,05,07,38,16.70
2009,07,05,07,39,16.70
2009,07,05,07,40,16.80
2009,07,05,07,41,16.90
2009,07,05,07,42,17.00
2009,07,05,07,43,17.00
2009,07,05,07,44,17.10
2009,07,05,07,45,17.10
2009,07,05,07,46,17.10
2009,07,05,07,47,17.00
2009,07,05,07,48,16.90
2009,07,05,07,49,16.80
2009,07,05,07,50,16.70
2009,07,05,07,51,16.50
2009,07,05,07,52,16.40
2009,07,05,07,53,16.30
2009,07,05,07,54,16.20
2009,07,05,07,55,16.10
2009,07,05,07,56,16.10
2009,07,05,07,57,16.10
2009,07,05,07,58,16.10
2009,07,05,07,59,16.10
2009,07,05,08,00,16.10
2009,07,05,08,01,16.20
2009,07,05,08,02,16.20
2009,07,05,08,03,16.30
2009,07,05,08,04,16.40
2009,07,05,08,05,16.50
2009,07,05,08,06,16.60
2009,07,05,08,07,16.70
2009,07,05,08,08,16.80
2009,07,05,08,09,16.90
2009,07,05,08,10,16.90
2009,07,05,08,11,17.00
2009,07,05,08,12,17.10
2009,07,05,08,13,17.10
2009,07,05,08,14,17.20
2009,07,05,08,15,17.30
2009,07,05,08,16,17.30
2009,07,05,08,17,17.40
2009,07,05,08,18,17.50
2009,07,05,08,19,17.50
2009,07,05,08,20,17.60
2009,07,05,08,21,17.60
2009,07,05,08,22,17.60
2009,07,05,08,23,17.60
2009,07,05,08,24,17.60
2009,07,05,08,25,17.60
2009,07,05,08,26,17.50
2009,07,05,08,27,17.50
2009,07,05,08,28,17.30
2009,07,05,08,29,17.30
2009,07,05,08,30,17.10
2009,07,05,08,31,17.00
2009,07,05,08,32,16.90
2009,07,05,08,33,16.90
2009,07,05,08,34,16.80
2009,07,05,08,35,16.80
2009,07,05,08,36,16.80
2009,07,05,08,37,16.80
2009,07,05,08,38,16.90
2009,07,05,08,39,16.90
2009,07,05,08,40,16.90
2009,07,05,08,41,17.00
2009,07,05,08,42,17.00
2009,07,05,08,43,17.10
2009,07,05,08,44,17.10
2009,07,05,08,45,17.20
2009,07,05,08,46,17.30
2009,07,05,08,47,17.30
2009,07,05,08,48,17.40
2009,07,05,08,49,17.40
2009,07,05,08,50,17.50
2009,07,05,08,51,17.50
2009,07,05,08,52,17.50
2009,07,05,08,53,17.50
2009,07,05,08,54,17.50
2009,07,05,08,55,17.50
2009,07,05,08,56,17.50
2009,07,05,08,57,17.50
2009,07,05,08,58,17.40
2009,07,05,08,59,17.40
2009,07,05,09,00,17.30
2009,07,05,09,01,17.30
2009,07,05,09,02,17.20
2009,07,05,09,03,17.10
2009,07,05,09,04,17.10
2009,07,05,09,05,17.00
2009,07,05,09,06,17.00
2009,07,05,09,07,17.00
2009,07,05,09,08,17.10
2009,07,05,09,09,17.10
2009,07,05,09,10,17.10
2009,07,05,09,11,17.20
2009,07,05,09,12,17.20
2009,07,05,09,13,17.30
2009,07,05,09,14,17.30
2009,07,05,09,15,17.40
2009,07,05,09,16,17.40
2009,07,05,09,17,17.40
2009,07,05,09,18,17.40
2009,07,05,09,19,17.50
2009,07,05,09,20,17.50
2009,07,05,09,21,17.50
2009,07,05,09,22,17.60
2009,07,05,09,23,17.70
2009,07,05,09,24,17.70
2009,07,05,09,25,17.70
2009,07,05,09,26,17.80
2009,07,05,09,27,17.90
2009,07,05,09,28,17.90
2009,07,05,09,29,17.90
2009,07,05,09,30,17.90
2009,07,05,09,31,18.00
2009,07,05,09,32,18.10
2009,07,05,09,33,18.20
2009,07,05,09,34,18.20
2009,07,05,09,35,18.20
2009,07,05,09,36,18.30
2009,07,05,09,37,18.30
2009,07,05,09,38,18.40
2009,07,05,09,39,18.40
2009,07,05,09,40,18.50
2009,07,05,09,41,18.50
2009,07,05,09,42,18.50
2009,07,05,09,43,18.60
2009,07,05,09,44,18.60
2009,07,05,09,45,18.60
2009,07,05,09,46,18.60
2009,07,05,09,47,18.60
2009,07,05,09,48,18.50
2009,07,05,09,49,18.50
2009,07,05,09,50,18.50
2009,07,05,09,51,18.60
2009,07,05,09,52,18.60
2009,07,05,09,53,18.60
2009,07,05,09,54,18.70
2009,07,05,09,55,18.70
2009,07,05,09,56,18.70
2009,07,05,09,57,18.80
2009,07,05,09,58,18.90
2009,07,05,09,59,18.90
2009,07,05,10,00,19.00
2009,07,05,10,01,19.10
2009,07,05,10,02,19.10
2009,07,05,10,03,19.20
2009,07,05,10,04,19.40
2009,07,05,10,05,19.40
2009,07,05,10,06,19.50
2009,07,05,10,07,19.60
2009,07,05,10,08,19.70
2009,07,05,10,09,19.70
2009,07,05,10,10,19.80
2009,07,05,10,11,19.90
2009,07,05,10,12,19.90
2009,07,05,10,13,19.90
2009,07,05,10,14,19.90
2009,07,05,10,15,19.90
2009,07,05,10,16,19.90
2009,07,05,10,17,20.00
2009,07,05,10,18,20.00
2009,07,05,10,19,19.90
2009,07,05,10,20,19.90
2009,07,05,10,21,19.90
2009,07,05,10,22,19.90
2009,07,05,10,23,19.90
2009,07,05,10,24,19.70
2009,07,05,10,25,19.50
2009,07,05,10,26,19.40
2009,07,05,10,27,19.40
2009,07,05,10,28,19.20
2009,07,05,10,29,19.20
2009,07,05,10,30,19.10
2009,07,05,10,31,19.10
2009,07,05,10,32,19.10
2009,07,05,10,33,19.20
2009,07,05,10,34,19.30
2009,07,05,10,35,19.40
2009,07,05,10,36,19.50
2009,07,05,10,37,19.60
2009,07,05,10,38,19.80
2009,07,05,10,39,19.90
2009,07,05,10,40,19.90
2009,07,05,10,41,19.90
2009,07,05,10,42,20.10
2009,07,05,10,43,20.10
2009,07,05,10,44,20.00
2009,07,05,10,45,19.90
2009,07,05,10,46,19.90
2009,07,05,10,47,20.00
2009,07,05,10,48,20.10
2009,07,05,10,49,20.00
2009,07,05,10,50,19.90
2009,07,05,10,51,19.90
2009,07,05,10,52,19.90
2009,07,05,10,53,19.80
2009,07,05,10,54,19.80
2009,07,05,10,55,19.80
2009,07,05,10,56,19.80
2009,07,05,10,57,19.80
2009,07,05,10,58,19.80
2009,07,05,10,59,19.80
2009,07,05,11,00,19.80
2009,07,05,11,01,19.90
2009,07,05,11,02,19.90
2009,07,05,11,03,19.90
2009,07,05,11,04,19.90
2009,07,05,11,05,19.90
2009,07,05,11,06,19.70
2009,07,05,11,07,19.60
2009,07,05,11,08,19.50
2009,07,05,11,09,19.40
2009,07,05,11,10,19.30
2009,07,05,11,11,19.20
2009,07,05,11,12,19.20
2009,07,05,11,13,19.20
2009,07,05,11,14,19.20
2009,07,05,11,15,19.20
2009,07,05,11,16,19.20
2009,07,05,11,17,19.30
2009,07,05,11,18,19.30
2009,07,05,11,19,19.40
2009,07,05,11,20,19.50
2009,07,05,11,21,19.60
2009,07,05,11,22,19.60
2009,07,05,11,23,19.70
2009,07,05,11,24,19.80
2009,07,05,11,25,19.80
2009,07,05,11,26,19.80
2009,07,05,11,27,19.80
2009,07,05,11,28,19.80
2009,07,05,11,29,19.90
2009,07,05,11,30,19.90
2009,07,05,11,31,19.90
2009,07,05,11,32,19.80
2009,07,05,11,33,19.80
2009,07,05,11,34,19.90
2009,07,05,11,35,19.90
2009,07,05,11,36,19.90
2009,07,05,11,37,20.00
2009,07,05,11,38,20.20
2009,07,05,11,39,20.20
2009,07,05,11,40,20.20
2009,07,05,11,41,20.20
2009,07,05,11,42,20.10
2009,07,05,11,43,20.10
2009,07,05,11,44,20.00
2009,07,05,11,45,19.90
2009,07,05,11,46,19.90
2009,07,05,11,47,19.90
2009,07,05,11,48,19.90
2009,07,05,11,49,19.90
2009,07,05,11,50,19.90
2009,07,05,11,51,19.90
2009,07,05,11,52,19.90
2009,07,05,11,53,19.90
2009,07,05,11,54,19.90
2009,07,05,11,55,19.90
2009,07,05,11,56,19.90
2009,07,05,11,57,19.90
2009,07,05,11,58,19.90
2009,07,05,11,59,19.90
2009,07,05,12,00,19.90
2009,07,05,12,01,19.90
2009,07,05,12,02,19.90
2009,07,05,12,03,19.80
2009,07,05,12,04,19.80
2009,07,05,12,05,19.90
2009,07,05,12,06,19.90
2009,07,05,12,07,19.90
2009,07,05,12,08,19.90
2009,07,05,12,09,20.00
2009,07,05,12,10,20.10
2009,07,05,12,11,20.20
2009,07,05,12,12,20.20
2009,07,05,12,13,20.40
2009,07,05,12,14,20.50
2009,07,05,12,15,20.60
2009,07,05,12,16,20.60
2009,07,05,12,17,20.60
2009,07,05,12,18,20.60
2009,07,05,12,19,20.50
2009,07,05,12,20,20.50
2009,07,05,12,21,20.50
2009,07,05,12,22,20.50
2009,07,05,12,23,20.50
2009,07,05,12,24,20.40
2009,07,05,12,25,20.40
2009,07,05,12,26,20.40
2009,07,05,12,27,20.40
2009,07,05,12,28,20.40
2009,07,05,12,29,20.40
2009,07,05,12,30,20.40
2009,07,05,12,31,20.40
2009,07,05,12,32,20.40
2009,07,05,12,33,20.40
2009,07,05,12,34,20.40
2009,07,05,12,35,20.40
2009,07,05,12,36,20.50
2009,07,05,12,37,20.50
2009,07,05,12,38,20.60
2009,07,05,12,39,20.60
2009,07,05,12,40,20.60
2009,07,05,12,41,20.60
2009,07,05,12,42,20.60
2009,07,05,12,43,20.60
2009,07,05,12,44,20.60
2009,07,05,12,45,20.60
2009,07,05,12,46,20.70
2009,07,05,12,47,20.70
2009,07,05,12,48,20.80
2009,07,05,12,49,20.80
2009,07,05,12,50,20.80
2009,07,05,12,51,20.80
2009,07,05,12,52,20.90
2009,07,05,12,53,20.90
2009,07,05,12,54,20.90
2009,07,05,12,55,21.00
2009,07,05,12,56,21.00
2009,07,05,12,57,21.10
2009,07,05,12,58,21.20
2009,07,05,12,59,21.20
2009,07,05,13,00,21.20
2009,07,05,13,01,21.20
2009,07,05,13,02,21.10
2009,07,05,13,03,21.10
2009,07,05,13,04,21.10
2009,07,05,13,05,21.10
2009,07,05,13,06,21.10
2009,07,05,13,07,21.10
2009,07,05,13,08,21.20
2009,07,05,13,09,21.20
2009,07,05,13,10,21.20
2009,07,05,13,11,21.20
2009,07,05,13,12,21.20
2009,07,05,13,13,21.20
2009,07,05,13,14,21.20
2009,07,05,13,15,21.30
2009,07,05,13,16,21.30
2009,07,05,13,17,21.30
2009,07,05,13,18,21.40
2009,07,05,13,19,21.40
2009,07,05,13,20,21.50
2009,07,05,13,21,21.60
2009,07,05,13,22,21.60
2009,07,05,13,23,21.70
2009,07,05,13,24,21.80
2009,07,05,13,25,21.80
2009,07,05,13,26,21.90
2009,07,05,13,27,22.00
2009,07,05,13,28,22.10
2009,07,05,13,29,22.10
2009,07,05,13,30,22.10
2009,07,05,13,31,22.10
2009,07,05,13,32,22.10
2009,07,05,13,33,22.10
2009,07,05,13,34,22.10
2009,07,05,13,35,22.00
2009,07,05,13,36,22.00
2009,07,05,13,37,22.00
2009,07,05,13,38,21.90
2009,07,05,13,39,21.90
2009,07,05,13,40,22.00
2009,07,05,13,41,22.00
2009,07,05,13,42,22.00
2009,07,05,13,43,22.10
2009,07,05,13,44,22.10
2009,07,05,13,45,22.10
2009,07,05,13,46,22.20
2009,07,05,13,47,22.30
2009,07,05,13,48,22.30
2009,07,05,13,49,22.30
2009,07,05,13,50,22.40
2009,07,05,13,51,22.40
2009,07,05,13,52,22.40
2009,07,05,13,53,22.30
2009,07,05,13,54,22.30
2009,07,05,13,55,22.40
2009,07,05,13,56,22.50
2009,07,05,13,57,22.70
2009,07,05,13,58,22.80
2009,07,05,13,59,22.80
2009,07,05,14,00,22.90
2009,07,05,14,01,22.90
2009,07,05,14,02,22.90
2009,07,05,14,03,22.90
2009,07,05,14,04,22.90
2009,07,05,14,05,22.90
2009,07,05,14,06,22.80
2009,07,05,14,07,22.70
2009,07,05,14,08,22.60
2009,07,05,14,09,22.60
2009,07,05,14,10,22.60
2009,07,05,14,11,22.60
2009,07,05,14,12,22.60
2009,07,05,14,13,22.60
2009,07,05,14,14,22.60
2009,07,05,14,15,22.70
2009,07,05,14,16,22.70
2009,07,05,14,17,22.70
2009,07,05,14,18,22.70
2009,07,05,14,19,22.80
2009,07,05,14,20,22.80
2009,07,05,14,21,22.90
2009,07,05,14,22,22.90
2009,07,05,14,23,22.90
2009,07,05,14,24,22.90
2009,07,05,14,25,22.90
2009,07,05,14,26,22.80
2009,07,05,14,27,22.80
2009,07,05,14,28,22.70
2009,07,05,14,29,22.60
2009,07,05,14,30,22.50
2009,07,05,14,31,22.50
2009,07,05,14,32,22.50
2009,07,05,14,33,22.50
2009,07,05,14,34,22.50
2009,07,05,14,35,22.60
2009,07,05,14,36,22.60
2009,07,05,14,37,22.70
2009,07,05,14,38,22.80
2009,07,05,14,39,22.70
2009,07,05,14,40,22.70
2009,07,05,14,41,22.70
2009,07,05,14,42,22.70
2009,07,05,14,43,22.80
2009,07,05,14,44,22.80
2009,07,05,14,45,22.80
2009,07,05,14,46,22.90
2009,07,05,14,47,23.00
2009,07,05,14,48,23.10
2009,07,05,14,49,23.10
2009,07,05,14,50,23.20
2009,07,05,14,51,23.20
2009,07,05,14,52,23.20
2009,07,05,14,53,23.20
2009,07,05,14,54,23.20
2009,07,05,14,55,23.20
2009,07,05,14,56,23.10
2009,07,05,14,57,23.00
2009,07,05,14,58,22.90
2009,07,05,14,59,22.90
2009,07,05,15,00,22.90
2009,07,05,15,01,23.00
2009,07,05,15,02,23.10
2009,07,05,15,03,23.20
2009,07,05,15,04,23.30
2009,07,05,15,05,23.30
2009,07,05,15,06,23.30
2009,07,05,15,07,23.30
2009,07,05,15,08,23.30
2009,07,05,15,09,23.30
2009,07,05,15,10,23.40
2009,07,05,15,11,23.40
2009,07,05,15,12,23.50
2009,07,05,15,13,23.60
2009,07,05,15,14,23.70
2009,07,05,15,15,23.70
2009,07,05,15,16,23.70
2009,07,05,15,17,23.70
2009,07,05,15,18,23.70
2009,07,05,15,19,23.70
2009,07,05,15,20,23.70
2009,07,05,15,21,23.70
2009,07,05,15,22,23.70
2009,07,05,15,23,23.70
2009,07,05,15,24,23.70
2009,07,05,15,25,23.70
2009,07,05,15,26,23.80
2009,07,05,15,27,23.80
2009,07,05,15,28,23.70
2009,07,05,15,29,23.80
2009,07,05,15,30,23.80
2009,07,05,15,31,23.70
2009,07,05,15,32,23.70
2009,07,05,15,33,23.40
2009,07,05,15,34,23.30
2009,07,05,15,35,23.10
2009,07,05,15,36,22.90
2009,07,05,15,37,22.90
2009,07,05,15,38,22.90
2009,07,05,15,39,22.90
2009,07,05,15,40,23.10
2009,07,05,15,41,23.10
2009,07,05,15,42,23.10
2009,07,05,15,43,23.20
2009,07,05,15,44,23.20
2009,07,05,15,45,23.10
2009,07,05,15,46,23.10
2009,07,05,15,47,23.10
2009,07,05,15,48,23.00
2009,07,05,15,49,22.90
2009,07,05,15,50,22.90
2009,07,05,15,51,22.90
2009,07,05,15,52,22.90
2009,07,05,15,53,22.90
2009,07,05,15,54,22.90
2009,07,05,15,55,23.00
2009,07,05,15,56,23.10
2009,07,05,15,57,23.20
2009,07,05,15,58,23.30
2009,07,05,15,59,23.30
2009,07,05,16,00,23.40
2009,07,05,16,01,23.50
2009,07,05,16,02,23.50
2009,07,05,16,03,23.40
2009,07,05,16,04,23.30
2009,07,05,16,05,23.20
2009,07,05,16,06,23.20
2009,07,05,16,07,23.10
2009,07,05,16,08,23.10
2009,07,05,16,09,23.10
2009,07,05,16,10,23.10
2009,07,05,16,11,23.10
2009,07,05,16,12,23.20
2009,07,05,16,13,23.30
2009,07,05,16,14,23.30
2009,07,05,16,15,23.40
2009,07,05,16,16,23.40
2009,07,05,16,17,23.30
2009,07,05,16,18,23.40
2009,07,05,16,19,23.30
2009,07,05,16,20,23.20
2009,07,05,16,21,23.10
2009,07,05,16,22,22.90
2009,07,05,16,23,22.90
2009,07,05,16,24,22.90
2009,07,05,16,25,23.00
2009,07,05,16,26,23.10
2009,07,05,16,27,23.00
2009,07,05,16,28,22.90
2009,07,05,16,29,22.90
2009,07,05,16,30,22.90
2009,07,05,16,31,22.90
2009,07,05,16,32,22.90
2009,07,05,16,33,22.90
2009,07,05,16,34,22.90
2009,07,05,16,35,22.90
2009,07,05,16,36,22.90
2009,07,05,16,37,22.90
2009,07,05,16,38,22.90
2009,07,05,16,39,22.90
2009,07,05,16,40,22.90
2009,07,05,16,41,22.90
2009,07,05,16,42,22.90
2009,07,05,16,43,22.90
2009,07,05,16,44,22.90
2009,07,05,16,45,22.90
2009,07,05,16,46,22.90
2009,07,05,16,47,22.90
2009,07,05,16,48,22.90
2009,07,05,16,49,22.90
2009,07,05,16,50,22.90
2009,07,05,16,51,22.80
2009,07,05,16,52,22.80
2009,07,05,16,53,22.70
2009,07,05,16,54,22.70
2009,07,05,16,55,22.70
2009,07,05,16,56,22.70
2009,07,05,16,57,22.70
2009,07,05,16,58,22.70
2009,07,05,16,59,22.70
2009,07,05,17,00,22.80
2009,07,05,17,01,22.80
2009,07,05,17,02,22.80
2009,07,05,17,03,22.90
2009,07,05,17,04,22.90
2009,07,05,17,05,23.00
2009,07,05,17,06,23.10
2009,07,05,17,07,23.20
2009,07,05,17,08,23.20
2009,07,05,17,09,23.20
2009,07,05,17,10,23.20
2009,07,05,17,11,23.20
2009,07,05,17,12,23.10
2009,07,05,17,13,23.00
2009,07,05,17,14,22.90
2009,07,05,17,15,22.90
2009,07,05,17,16,22.90
2009,07,05,17,17,22.90
2009,07,05,17,18,22.90
2009,07,05,17,19,22.90